BEIDOU-3S IGSO-2S (C56)

Last updated on Mon Oct 20 2025 00:03:24 GMT+0000 (Coordinated Universal Time)

1 40938U 15053A 25291.85459797 -.00000160 00000+0 00000+0 0 9997 2 40938 49.6006 261.6536 0061586 189.7165 339.4726 1.00283036 36931
UTC large
Height (km)
Speed (km/s)
/
Latitude / Longitude
Inclination (degrees)
Orbital Period (minutes)
Azimuth
Elevation
Range (km)
Doppler Factor

Next 0 passes for location: London (51.5072 / 0.1276)

Sorry there are no passes over London.